Orange, MA

10:00 PM EST on December 10, 2019 (GMT -0500)
Orange Municipal

Weather History for KORE - October, 2019

Change the Weather History Date:

Friday, October 18, 2019

  Actual Average Record
Temperature  
Mean Temperature 50 °F -  
Max Temperature 55 °F 56 °F 75 °F (2016)
Min Temperature 42 °F 32 °F 23 °F (2015)
Degree Days  
Heating Degree Days 16    
Moisture  
Dew Point 37 °F    
Average Humidity 65    
Maximum Humidity 83    
Minimum Humidity 53    
Precipitation  
Precipitation 0.01 in - - ()
Sea Level Pressure  
Sea Level Pressure 29.75 in    
Wind  
Wind Speed 7 mph ()    
Max Wind Speed 14 mph    
Max Gust Speed 24 mph    
Visibility 10.0 miles    
Events Rain    
Averages and records for this station are not official NWS values.
T = Trace of Precipitation, MM = Missing Value Source: Averaged Metar Reports

Daily Weather History Graph

Daily Weather History Graph

Search for Another Location

Airport or City:

Astronomy

Oct. 18, 2019 Rise Set
Actual Time 7:05 AM EDT 6:02 PM EDT
Civil Twilight 6:36 AM EDT 6:31 PM EDT
Nautical Twilight 6:04 AM EDT 7:03 PM EDT
Astronomical Twilight 5:31 AM EDT 7:36 PM EDT
Moon 9:11 PM EDT (10/18) 11:40 AM EDT (10/18)
Length of Visible Light 11h 54m
Length of Day
10h 57m
Waning Gibbous, 79% of the Moon is Illuminated
Oct 18
Waning Gibbous
Oct 21
Last Quarter
Oct 27
New
Nov 4
First Quarter
Nov 12
Full

Hourly Weather History & Observations

Time (EDT) Temp. Windchill Dew Point Humidity Pressure Visibility Wind Dir Wind Speed Gust Speed Precip Events Conditions
12:52 AM 45.0 °F 40.6 °F 37.9 °F 76% 29.48 in 10.0 mi West 8.1 mph - N/A   Scattered Clouds
1:52 AM 50.0 °F - 37.9 °F 63% 29.51 in 10.0 mi West 8.1 mph - N/A   Overcast
2:52 AM 48.0 °F - 39.9 °F 74% 29.53 in 10.0 mi NE 3.5 mph - 0.00 in Rain Light Rain
3:52 AM 46.9 °F - 42.1 °F 83% 29.55 in 10.0 mi NNW 3.5 mph - 0.01 in   Overcast
4:52 AM 48.0 °F - 39.9 °F 74% 29.57 in 10.0 mi Calm Calm - N/A   Overcast
5:52 AM 48.0 °F - 37.9 °F 68% 29.60 in 10.0 mi Variable 6.9 mph - N/A   Mostly Cloudy
6:52 AM 46.0 °F - 37.9 °F 73% 29.64 in 10.0 mi Calm Calm - N/A   Scattered Clouds
7:52 AM 48.0 °F - 37.9 °F 68% 29.66 in 10.0 mi WNW 4.6 mph - N/A   Overcast
8:52 AM 48.9 °F - 39.0 °F 69% 29.70 in 10.0 mi Variable 6.9 mph - N/A   Overcast
9:52 AM 50.0 °F - 37.9 °F 63% 29.73 in 10.0 mi West 11.5 mph - N/A   Overcast
10:52 AM 51.1 °F - 37.0 °F 59% 29.76 in 10.0 mi West 11.5 mph 19.6 mph N/A   Overcast
11:52 AM 52.0 °F - 37.0 °F 57% 29.77 in 10.0 mi WNW 12.7 mph 23.0 mph N/A   Overcast
12:52 PM 53.1 °F - 37.0 °F 55% 29.78 in 10.0 mi NW 13.8 mph 20.7 mph N/A   Overcast
1:52 PM 54.0 °F - 37.0 °F 53% 29.78 in 10.0 mi NNW 11.5 mph - N/A   Overcast
2:52 PM 54.0 °F - 37.0 °F 53% 29.79 in 10.0 mi WNW 8.1 mph 23.0 mph N/A   Overcast
3:52 PM 53.1 °F - 37.9 °F 57% 29.82 in 10.0 mi NW 13.8 mph 17.3 mph N/A   Overcast
4:52 PM 53.1 °F - 37.9 °F 57% 29.84 in 10.0 mi West 9.2 mph - N/A   Overcast
5:52 PM 50.0 °F - 37.0 °F 61% 29.86 in 10.0 mi West 5.8 mph - N/A   Overcast
6:52 PM 46.9 °F - 36.0 °F 66% 29.88 in 10.0 mi NNW 9.2 mph - N/A   Clear
7:52 PM 46.9 °F - 34.0 °F 61% 29.91 in 10.0 mi NNW 10.4 mph 18.4 mph N/A   Clear
8:52 PM 46.0 °F 39.9 °F 34.0 °F 63% 29.92 in 10.0 mi NW 13.8 mph 24.2 mph N/A   Clear
9:52 PM 45.0 °F 40.6 °F 33.1 °F 63% 29.95 in 10.0 mi NW 8.1 mph - N/A   Clear
10:52 PM 45.0 °F 41.8 °F 34.0 °F 65% 29.96 in 10.0 mi WNW 5.8 mph - N/A   Overcast
11:52 PM 42.1 °F 37.1 °F 34.0 °F 73% 29.96 in 10.0 mi NW 8.1 mph - N/A   Mostly Cloudy